Location: Aufkirchen
(47.9603°N, 11.3653°E)
Time: 21:43:37
(UTC+02:00)

Altair - Pass Details

Date: 04 August 2021
Orbit: 1501 x 1682 km, 47.2° (Epoch: 22 September)

Event Time Altitude Azimuth Distance (km) Brightness Sun altitude
Exits shadow 04:45:41 - 265° (W) 4,410 9.4 -10.4°
Reaches altitude 10° 04:47:49 10° 266° (W) 3,716 9.0 -10.1°
Maximum altitude 04:57:11 87° 179° (S) 1,517 7.5 -8.9°
Drops below altitude 10° 05:06:23 10° 91° (E) 3,652 10.3 -7.7°
Sets 05:09:23 0° 92° (E) 4,636 11.0 -7.3°
